Madison, SD

6:55 PM CST on December 12, 2017 (GMT -0600)
Madison Municipal

Weather History for KMDS - February, 2012

Change the Weather History Date:

Sunday, February 26, 2012

  Actual Average Record
Temperature  
Mean Temperature 24 °F -  
Max Temperature 32 °F 37 °F 44 °F (2016)
Min Temperature 17 °F 18 °F -13 °F (2015)
Degree Days  
Heating Degree Days 40    
Moisture  
Dew Point 23 °F    
Average Humidity 100    
Maximum Humidity 100    
Minimum Humidity 100    
Precipitation  
Precipitation 0.05 in - - ()
Sea Level Pressure  
Sea Level Pressure 29.73 in    
Wind  
Wind Speed 23 mph (West)    
Max Wind Speed 36 mph    
Max Gust Speed 45 mph    
Visibility 9 miles    
Events Rain , Snow    
Averages and records for this station are not official NWS values.
T = Trace of Precipitation, MM = Missing Value Source: NWS Daily Summary

Daily Weather History Graph

Daily Weather History Graph

Search for Another Location

Airport or City:

Trip Planner

Search our weather history database for the weather conditions in past years. The results will help you decide how hot, cold, wet, or windy it might be!

Date:

Astronomy

Feb. 26, 2012 Rise Set
Actual Time 7:11 AM CST 6:12 PM CST
Civil Twilight 6:41 AM CST 6:41 PM CST
Nautical Twilight 6:08 AM CST 7:14 PM CST
Astronomical Twilight 5:35 AM CST 7:48 PM CST
Moon 8:54 AM CST (2/26) 11:24 PM CST (2/26)
Length of Visible Light 11h 59m
Length of Day
11h 01m
Waxing Crescent, 21% of the Moon is Illuminated
Feb 26
Waxing Crescent
Feb 29
First Quarter
Mar 8
Full
Mar 14
Last Quarter
Mar 22
New

Hourly Weather History & Observations

Time (CST) Temp. Windchill Dew Point Humidity Pressure Visibility Wind Dir Wind Speed Gust Speed Precip Events Conditions
12:05 AM 23.0 °F 7.2 °F 23.0 °F 100% 29.67 in 10.0 mi SE 23.0 mph 34.5 mph N/A   Unknown
12:25 AM 21.2 °F 4.9 °F 21.2 °F 100% 29.66 in 10.0 mi SSE 23.0 mph 28.8 mph N/A   Unknown
12:45 AM 21.2 °F 4.5 °F 21.2 °F 100% 29.65 in 10.0 mi SE 24.2 mph 35.7 mph N/A   Unknown
1:05 AM 21.2 °F 5.2 °F 21.2 °F 100% 29.64 in 10.0 mi SSE 21.9 mph 29.9 mph N/A   Unknown
1:25 AM 21.2 °F 6.8 °F 21.2 °F 100% 29.63 in 10.0 mi SSE 17.3 mph 28.8 mph N/A   Unknown
2:05 AM 23.0 °F 6.9 °F 23.0 °F 100% 29.55 in 10.0 mi SE 24.2 mph 32.2 mph N/A   Unknown
2:25 AM 23.0 °F 6.6 °F 23.0 °F 100% 29.52 in 10.0 mi SE 25.3 mph 32.2 mph N/A   Unknown
2:45 AM 23.0 °F 7.6 °F 23.0 °F 100% 29.55 in 10.0 mi SSE 21.9 mph 29.9 mph N/A   Unknown
3:25 AM 23.0 °F 9.2 °F 23.0 °F 100% 29.51 in 10.0 mi SSE 17.3 mph 24.2 mph N/A   Unknown
3:45 AM 23.0 °F 10.6 °F 23.0 °F 100% 29.51 in 10.0 mi South 13.8 mph - N/A   Unknown
4:25 AM 23.0 °F 10.6 °F 23.0 °F 100% 29.50 in 10.0 mi South 13.8 mph - N/A   Unknown
4:45 AM 23.0 °F 10.6 °F 23.0 °F 100% 29.49 in 10.0 mi South 13.8 mph 18.4 mph N/A   Unknown
5:05 AM 24.8 °F 14.0 °F 24.8 °F 100% 29.48 in 10.0 mi South 11.5 mph - N/A   Unknown
5:25 AM 24.8 °F 12.9 °F 24.8 °F 100% 29.47 in 10.0 mi SSW 13.8 mph - N/A   Unknown
5:45 AM 28.4 °F 17.0 °F 28.4 °F 100% 29.47 in 10.0 mi SSW 15.0 mph - N/A   Unknown
6:25 AM 32.0 °F 19.5 °F 32.0 °F 100% 29.48 in 10.0 mi West 21.9 mph 32.2 mph N/A   Unknown
6:45 AM 28.4 °F 13.8 °F 28.4 °F 100% 29.48 in 10.0 mi West 25.3 mph 34.5 mph N/A   Unknown
7:05 AM 28.4 °F 15.1 °F 28.4 °F 100% 29.49 in 10.0 mi West 20.7 mph 35.7 mph N/A   Unknown
7:45 AM 26.6 °F 12.7 °F 26.6 °F 100% 29.52 in 10.0 mi West 20.7 mph 34.5 mph N/A   Unknown
8:05 AM 26.6 °F 12.0 °F 26.6 °F 100% 29.54 in 10.0 mi West 23.0 mph 35.7 mph N/A   Unknown
8:45 AM 24.8 °F 9.0 °F 24.8 °F 100% 29.56 in 10.0 mi West 25.3 mph 38.0 mph N/A   Unknown
9:05 AM 24.8 °F 8.7 °F 24.8 °F 100% 29.57 in 9.0 mi West 26.5 mph 36.8 mph N/A   Unknown
9:25 AM 24.8 °F 9.0 °F 24.8 °F 100% 29.58 in 10.0 mi West 25.3 mph 34.5 mph N/A   Unknown
9:45 AM 24.8 °F 9.6 °F 24.8 °F 100% 29.60 in 10.0 mi West 23.0 mph 38.0 mph N/A Rain Light Freezing Rain
10:05 AM 24.8 °F 9.3 °F 24.8 °F 100% 29.62 in 8.0 mi West 24.2 mph 34.5 mph N/A   Unknown
10:25 AM 24.8 °F 9.0 °F 24.8 °F 100% 29.62 in 5.0 mi West 25.3 mph 40.3 mph N/A Rain Light Freezing Rain
10:45 AM 24.8 °F 8.7 °F 24.8 °F 100% 29.64 in 4.0 mi West 26.5 mph 40.3 mph N/A Rain Light Freezing Rain
11:05 AM 24.8 °F 7.9 °F 24.8 °F 100% 29.64 in 4.0 mi West 29.9 mph 42.6 mph N/A Rain Light Freezing Rain
11:25 AM 24.8 °F 7.6 °F 24.8 °F 100% 29.66 in 4.0 mi West 31.1 mph 42.6 mph N/A Rain Light Freezing Rain
11:45 AM 24.8 °F 8.1 °F 24.8 °F 100% 29.68 in 2.5 mi West 28.8 mph 42.6 mph N/A Rain Light Freezing Rain
12:05 PM 24.8 °F 6.6 °F 24.8 °F 100% 29.68 in 3.0 mi WNW 35.7 mph 42.6 mph N/A Rain Light Freezing Rain
12:25 PM 24.8 °F 7.9 °F 24.8 °F 100% 29.71 in 7.0 mi West 29.9 mph 44.9 mph N/A Rain Light Freezing Rain
12:45 PM 24.8 °F 8.7 °F 24.8 °F 100% 29.73 in 10.0 mi West 26.5 mph 39.1 mph N/A   Unknown
1:05 PM 24.8 °F 9.0 °F 24.8 °F 100% 29.75 in 10.0 mi West 25.3 mph 38.0 mph N/A   Unknown
1:25 PM 23.0 °F 6.0 °F 23.0 °F 100% 29.77 in 10.0 mi West 27.6 mph 40.3 mph N/A   Unknown
1:45 PM 24.8 °F 8.4 °F 24.8 °F 100% 29.78 in 10.0 mi West 27.6 mph 35.7 mph N/A   Unknown
2:05 PM 24.8 °F 9.6 °F 24.8 °F 100% 29.80 in 10.0 mi West 23.0 mph 38.0 mph N/A   Unknown
2:25 PM 24.8 °F 8.4 °F 24.8 °F 100% 29.81 in 10.0 mi West 27.6 mph 41.4 mph N/A   Unknown
2:45 PM 24.8 °F 9.0 °F 24.8 °F 100% 29.82 in 10.0 mi West 25.3 mph 39.1 mph N/A   Unknown
3:05 PM 24.8 °F 7.6 °F 24.8 °F 100% 29.84 in 10.0 mi West 31.1 mph 41.4 mph N/A   Unknown
3:25 PM 23.0 °F 6.9 °F 23.0 °F 100% 29.85 in 10.0 mi West 24.2 mph 33.4 mph N/A   Unknown
3:45 PM 23.0 °F 6.6 °F 23.0 °F 100% 29.87 in 10.0 mi WNW 25.3 mph 39.1 mph N/A   Unknown
4:05 PM 23.0 °F 6.9 °F 23.0 °F 100% 29.89 in 10.0 mi WNW 24.2 mph 41.4 mph N/A Rain Light Freezing Rain
4:25 PM 23.0 °F 6.9 °F 23.0 °F 100% 29.90 in 10.0 mi WNW 24.2 mph 36.8 mph N/A Rain Light Freezing Rain
4:45 PM 23.0 °F 7.2 °F 23.0 °F 100% 29.91 in 10.0 mi West 23.0 mph 35.7 mph N/A Rain Light Freezing Rain
5:05 PM 21.2 °F 4.5 °F 21.2 °F 100% 29.92 in 10.0 mi WNW 24.2 mph 33.4 mph N/A Rain Light Freezing Rain
5:25 PM 21.2 °F 4.2 °F 21.2 °F 100% 29.94 in 10.0 mi WNW 25.3 mph 39.1 mph N/A Snow Light Snow
5:45 PM 19.4 °F 3.2 °F 19.4 °F 100% 29.95 in 10.0 mi WNW 20.7 mph 33.4 mph N/A Snow Light Snow
6:00 PM 19.4 °F 2.8 °F 19.4 °F 100% 29.95 in 10.0 mi West 21.9 mph 29.9 mph 0.01 in Snow Light Snow
6:25 PM 19.4 °F 2.1 °F 19.4 °F 100% 29.97 in 10.0 mi WNW 24.2 mph 32.2 mph 0.01 in Snow Light Snow
6:45 PM 19.4 °F 0.2 °F 19.4 °F 100% 29.99 in 10.0 mi WNW 31.1 mph 40.3 mph 0.02 in Snow Light Snow
7:00 PM 19.4 °F 1.4 °F 19.4 °F 100% 30.00 in 10.0 mi WNW 26.5 mph 36.8 mph 0.02 in Rain Light Freezing Rain
7:25 PM 17.6 °F -1.0 °F 17.6 °F 100% 30.02 in 10.0 mi WNW 26.5 mph 34.5 mph 0.01 in Snow Light Snow
7:45 PM 17.6 °F -1.3 °F 17.6 °F 100% 30.03 in 10.0 mi WNW 27.6 mph 36.8 mph 0.01 in   Unknown
8:00 PM 17.6 °F -0.3 °F 17.6 °F 100% 30.04 in 10.0 mi WNW 24.2 mph 33.4 mph 0.01 in Snow Light Snow
8:25 PM 17.6 °F -0.6 °F 17.6 °F 100% 30.05 in 10.0 mi WNW 25.3 mph 33.4 mph N/A Snow Light Snow
8:45 PM 17.6 °F 0.1 °F 17.6 °F 100% 30.05 in 10.0 mi WNW 23.0 mph 31.1 mph N/A Snow Light Snow
9:05 PM 17.6 °F -0.3 °F 17.6 °F 100% 30.06 in 10.0 mi WNW 24.2 mph 29.9 mph N/A   Unknown
9:25 PM 17.6 °F -0.3 °F 17.6 °F 100% 30.08 in 10.0 mi WNW 24.2 mph 32.2 mph N/A Snow Light Snow
9:45 PM 15.8 °F -1.5 °F 15.8 °F 100% 30.10 in 10.0 mi WNW 20.7 mph - N/A Snow Light Snow
10:00 PM 15.8 °F -1.5 °F 15.8 °F 100% 30.11 in 10.0 mi WNW 20.7 mph 27.6 mph 0.01 in Snow Light Snow
10:25 PM 15.8 °F -1.1 °F 15.8 °F 100% 30.13 in 10.0 mi WNW 19.6 mph 25.3 mph 0.04 in Snow Light Snow
10:45 PM 15.8 °F -1.5 °F 15.8 °F 100% 30.14 in 10.0 mi WNW 20.7 mph 29.9 mph 0.05 in Snow Light Snow
11:00 PM 15.8 °F -2.3 °F 15.8 °F 100% 30.15 in 10.0 mi WNW 23.0 mph 29.9 mph 0.05 in Snow Light Snow
11:25 PM 14.0 °F -3.4 °F 14.0 °F 100% 30.16 in 10.0 mi WNW 19.6 mph 26.5 mph 0.02 in Snow Light Snow
11:45 PM 14.0 °F -3.0 °F 14.0 °F 100% 30.17 in 10.0 mi WNW 18.4 mph 26.5 mph 0.02 in   Unknown